Location: Lussas
(44.6119°N, 4.4726°E)
Time: 15:04:04
(UTC+00:00)

Cosmos 1633 - Pass Details

Date: 26 November 2020
Orbit: 462 x 480 km, 82.5° (Epoch: 28 January)

Event Time Altitude Azimuth Distance (km) Brightness Sun altitude
Rises 04:49:30 0° 189° (S) 2,476 6.2 -21.5°
Reaches altitude 10° 04:51:34 10° 190° (S) 1,606 5.2 -21.2°
Maximum altitude 04:55:04 84° 277° (W) 472 2.3 -20.6°
Drops below altitude 10° 04:58:37 10° 7° (N) 1,624 5.2 -19.9°
Sets 05:00:43 0° 8° (N) 2,507 6.2 -19.6°
